Wind_Speed
3 2 4 4 4 5 6 6 5 5 7 10 11 11 11 12 13 12 11 8 4 3 4 5 6 7 8 8 8 9 8 7 8 10 12 14 16 18 17 17 17 17 18 20 22 27 27 22 20 18 18 20 19 17 13 12 11 8 5 8 14 11 9 6 2 5 5 6 8 10 14 18 25 28 32 42 50 55 61 64 62 53 40 29 23
3 3 4 4 4 4 5 5 6 8 11 11 10 11 11 11 9 7 6 4 4 4 5 6 7 8 8 8 8 8 7 7 8 10 12 14 16 17 17 17 17 17 18 20 23 28 26 20 19 18 19 21 18 15 13 11 11 8 4 6 11 9 5 4 1 4 7 8 10 12 15 19 25 28 33 42 49 55 60 65 66 59 46 37 33
5 5 5 5 5 5 6 8 9 10 10 8 9 10 9 7 5 5 4 4 5 6 6 7 7 7 7 7 7 8 7 6 8 10 12 13 15 16 16 16 17 18 19 21 24 27 24 19 19 19 21 22 18 15 13 11 11 8 5 6 10 9 6 4 3 7 9 10 12 14 17 21 27 30 34 41 48 53 58 64 67 64 55 46 44
5 5 5 4 5 6 7 7 7 6 7 7 7 7 5 4 4 4 5 5 6 6 7 7 8 8 7 7 7 7 6 6 8 10 12 13 14 15 15 17 18 19 21 22 24 24 22 20 19 20 22 23 19 15 12 11 11 7 5 7 11 11 8 6 5 8 9 12 15 17 19 22 27 31 34 39 46 52 56 61 65 66 61 52 50
1 1 2 3 4 4 4 5 6 6 7 7 6 6 5 5 4 4 5 5 6 7 8 8 8 8 7 7 7 7 7 7 8 10 12 13 14 15 15 17 19 20 22 23 23 23 21 21 20 20 23 23 19 15 13 12 11 7 5 8 12 12 10 8 6 7 10 13 16 18 20 22 26 30 33 37 43 50 54 57 60 64 63 57 52
8 8 7 7 6 6 7 8 8 8 8 7 7 6 5 5 4 4 4 5 6 7 8 8 7 7 8 8 7 8 9 9 10 11 13 14 15 15 15 17 19 21 23 23 22 22 22 22 21 21 23 22 18 15 13 13 11 7 5 9 13 12 11 9 7 7 11 14 17 18 20 22 25 29 33 36 40 46 52 55 57 59 61 60 55
14 13 11 10 9 9 10 10 9 9 8 8 6 5 4 4 4 4 5 6 7 8 8 8 7 8 9 9 8 9 10 11 12 13 13 14 14 14 15 17 20 23 24 24 22 22 22 21 21 22 23 22 19 15 14 13 10 7 6 10 14 13 12 10 8 8 11 14 17 18 20 23 25 28 33 36 38 42 48 52 54 55 57 58 57
15 14 13 12 12 11 11 10 10 10 9 7 6 5 4 4 4 5 6 7 8 8 8 8 9 10 11 10 10 11 12 13 13 14 14 14 14 14 16 19 21 23 24 24 22 21 21 20 20 22 23 21 18 16 14 13 10 7 7 12 15 14 12 11 9 9 11 14 16 18 20 23 26 28 31 35 36 38 43 48 51 52 52 53 54
16 15 15 14 13 12 11 11 11 10 9 8 7 6 6 6 6 7 7 8 8 9 9 10 11 12 12 11 11 13 14 14 14 14 13 13 14 16 18 20 22 22 23 24 22 20 20 19 20 21 21 21 18 16 15 13 10 8 9 14 16 15 13 11 10 9 11 14 16 17 20 22 25 28 30 32 35 36 38 42 46 49 49 49 50
17 16 15 15 14 13 13 12 12 11 10 10 9 8 8 8 8 7 7 8 9 9 9 10 11 12 12 12 12 14 15 15 14 13 13 14 16 17 19 21 22 21 22 24 22 20 19 18 19 20 20 20 18 17 15 13 11 9 11 14 17 15 13 11 10 9 11 13 15 16 19 21 24 26 28 30 32 34 36 37 40 44 46 47 47
17 17 16 16 16 15 14 14 13 13 12 12 11 10 10 9 9 8 8 9 10 9 10 11 12 13 13 14 14 14 15 15 14 13 14 16 17 19 21 22 22 21 22 23 21 21 20 19 19 20 20 19 18 17 16 14 12 11 12 14 16 15 13 11 10 10 11 12 14 15 17 20 23 25 26 28 30 32 34 34 36 37 40 42 43
19 18 18 18 18 17 16 15 15 15 14 14 13 12 12 11 10 10 10 11 11 11 11 12 13 14 15 16 15 14 15 16 16 15 16 17 19 21 22 23 23 22 22 23 21 21 21 19 19 20 20 19 18 18 17 15 13 12 12 14 15 15 13 11 10 10 11 12 14 15 16 18 21 23 25 26 28 29 30 32 33 33 34 35 37
22 21 20 20 20 19 18 17 16 16 16 15 14 14 13 13 12 11 12 12 12 12 12 14 14 15 16 16 16 16 17 17 18 18 19 20 22 23 24 24 24 23 23 22 21 21 21 20 20 20 20 20 19 18 17 16 14 13 12 12 13 13 12 11 10 10 11 13 14 15 16 17 19 22 23 25 26 27 28 29 30 31 31 31 31
24 23 23 22 22 21 20 19 18 18 17 16 15 15 15 14 14 14 13 12 12 13 13 14 15 16 17 18 18 18 18 18 19 20 21 22 23 24 24 25 24 24 23 21 21 21 21 20 20 20 21 20 19 19 18 16 15 13 12 11 12 12 12 11 11 11 11 13 15 16 17 18 19 20 22 24 25 26 27 27 28 28 29 29 28
25 25 24 24 24 23 22 21 20 19 18 17 16 16 15 16 16 16 16 14 14 14 15 16 17 18 19 20 21 20 20 20 21 22 23 24 25 25 25 25 25 24 22 21 22 22 21 21 21 21 21 21 20 19 18 17 15 13 12 11 11 11 11 11 11 11 12 13 15 17 18 19 20 20 21 23 24 25 26 27 26 26 27 27 27
27 26 26 26 26 25 24 23 22 21 20 19 18 18 17 17 18 18 18 18 17 17 18 19 20 21 22 22 22 21 21 22 22 23 24 25 26 26 26 26 26 25 24 23 23 23 22 23 22 21 21 21 20 19 18 17 15 13 12 11 11 11 11 11 11 11 12 14 15 17 18 19 20 20 21 22 23 24 25 26 26 26 25 25 25
29 29 28 28 28 27 26 25 25 23 22 21 21 20 19 19 20 20 21 21 21 21 21 21 22 23 23 23 22 21 22 23 23 24 25 26 27 27 28 28 28 27 26 26 25 24 24 24 23 22 23 22 21 20 19 18 16 14 12 12 12 12 12 12 13 12 12 14 15 16 17 18 19 20 20 21 22 23 23 24 24 24 25 24 24
31 31 30 30 30 29 28 28 27 26 24 23 23 23 22 21 21 22 22 22 23 23 23 24 24 24 24 23 22 22 22 23 24 24 25 27 29 30 30 30 30 29 29 29 29 27 26 25 24 24 24 23 22 22 21 20 19 17 15 13 13 13 14 14 14 14 13 14 15 16 17 17 18 18 19 19 20 21 21 21 22 22 22 22 22
32 32 32 32 32 31 31 30 29 28 26 25 24 24 24 23 23 23 23 24 24 24 24 25 26 26 25 24 23 23 23 24 25 25 26 28 30 32 33 33 32 32 33 33 31 30 29 27 26 26 26 25 25 25 24 23 22 20 18 16 15 15 15 15 15 14 14 14 14 15 16 16 17 17 17 17 18 18 19 19 19 19 18 18 18
32 33 33 33 33 33 32 32 31 30 28 26 25 25 25 25 25 24 24 24 25 25 25 26 26 26 25 24 23 24 24 25 27 28 29 29 31 32 34 34 34 34 35 34 34 33 33 31 30 30 29 28 28 28 27 26 25 23 21 19 18 17 16 15 15 15 15 14 14 14 15 15 16 16 16 15 15 16 16 17 17 17 16 15 14
30 32 32 33 33 34 34 33 33 31 29 27 25 25 25 25 25 25 24 24 24 25 25 26 26 25 24 24 25 26 27 28 30 31 31 31 31 32 33 34 35 36 37 36 36 37 36 36 35 35 33 32 32 31 30 29 28 26 24 23 21 20 18 16 15 14 14 14 14 14 14 15 15 15 15 15 15 14 14 15 15 16 16 15 15
28 30 31 32 33 33 34 34 33 33 31 29 27 26 25 24 24 24 23 23 24 24 25 25 25 24 24 24 26 28 29 30 31 32 33 33 33 33 33 34 35 37 38 38 39 39 40 40 40 40 38 37 37 36 34 33 32 30 28 27 25 23 21 18 16 14 13 13 13 13 13 13 14 14 15 15 15 15 15 14 15 15 16 16 16
28 28 29 30 32 33 33 33 33 33 32 30 28 27 26 25 24 24 23 23 23 24 24 24 24 24 24 26 28 29 30 30 31 32 33 33 34 35 35 36 36 37 38 39 41 41 43 43 44 44 43 42 41 40 39 38 36 34 33 31 29 27 25 22 20 17 15 14 13 12 12 11 11 12 12 13 14 14 15 15 15 15 15 16 16
28 28 28 29 30 31 32 32 32 32 32 31 30 28 27 26 26 25 25 25 26 26 26 25 24 24 25 27 29 29 30 30 30 32 33 33 34 35 35 36 37 38 39 40 41 42 44 45 46 46 46 46 46 45 44 42 41 40 38 36 35 32 30 27 25 23 20 18 16 15 14 13 12 12 12 12 12 13 13 14 15 15 14 15 15
29 28 28 28 28 29 30 31 31 30 30 30 29 29 28 28 28 28 28 28 29 29 29 28 26 26 27 28 28 28 29 28 28 29 31 32 33 33 34 35 36 37 38 39 41 43 44 46 47 48 48 48 48 48 47 46 46 45 43 42 40 38 36 34 32 29 26 23 22 20 18 16 15 14 14 13 13 13 12 13 13 14 14 14 14
28 28 28 27 27 27 28 29 30 29 28 27 27 27 27 27 28 29 29 30 30 31 30 29 28 28 28 28 27 27 26 26 25 26 27 28 30 31 32 34 35 36 37 38 40 42 43 44 46 47 48 49 49 49 49 49 49 48 48 47 46 44 43 41 39 37 34 31 29 26 24 22 20 18 17 16 15 14 13 13 13 13 13 13 14
26 27 27 27 26 26 27 27 28 28 28 26 25 25 25 25 26 27 29 29 30 31 31 29 28 27 26 25 24 23 23 23 23 23 24 25 27 28 29 31 32 34 35 36 38 40 41 43 44 44 45 46 47 48 49 49 49 50 50 50 49 49 48 47 45 44 42 40 38 35 32 30 27 25 22 20 18 17 16 14 13 13 13 13 13
24 25 26 27 26 26 26 25 25 26 27 26 25 24 23 23 24 25 27 28 28 29 30 29 28 27 25 24 23 22 22 23 23 23 23 24 25 26 27 29 30 31 33 34 36 38 39 41 41 42 43 43 44 45 46 47 47 48 49 50 50 50 49 49 48 47 46 45 44 43 41 39 36 34 31 28 25 23 20 18 16 15 13 13 13
21 22 23 24 25 25 25 25 24 24 24 25 24 23 23 23 23 23 24 25 26 27 27 27 26 25 24 23 22 22 22 22 22 22 22 23 23 24 25 26 27 28 30 32 33 35 37 38 39 39 40 41 41 42 43 43 44 45 46 47 47 47 48 48 48 48 48 47 47 46 45 44 43 41 40 37 35 32 29 26 23 20 18 16 15
18 20 21 21 23 24 24 24 24 23 22 22 22 21 21 21 21 21 21 22 24 25 25 24 23 21 20 20 20 20 20 20 20 20 20 21 22 22 23 24 25 26 27 29 30 31 32 33 34 35 36 37 38 39 39 40 41 41 42 43 43 44 44 45 45 46 46 46 47 47 47 46 45 45 44 43 41 40 38 36 33 30 27 24 22
16 17 18 19 19 20 21 22 23 22 22 21 20 19 18 18 18 18 19 19 19 19 19 19 19 19 18 18 18 18 18 17 17 17 18 18 19 20 21 22 22 23 24 25 26 27 28 29 30 31 31 32 33 34 35 35 36 37 38 39 39 40 40 41 42 42 42 43 44 45 45 45 45 45 45 45 44 43 42 41 40 38 36 34 32
14 15 16 17 17 18 18 19 20 21 21 20 19 18 17 16 15 14 14 14 14 13 12 14 15 16 16 16 16 17 16 16 16 16 16 16 17 18 19 18 18 19 20 21 22 24 25 26 26 27 27 28 29 29 30 31 32 33 33 34 35 36 37 37 38 39 39 40 41 41 41 42 42 43 44 44 44 44 44 43 42 41 40 39 38
11 13 14 15 15 16 16 16 17 17 18 18 18 18 17 15 14 13 12 12 11 10 10 11 13 13 14 15 15 15 15 14 14 14 15 14 15 15 16 16 16 16 16 17 19 20 22 23 23 23 24 25 26 27 27 28 29 29 30 30 31 32 32 33 34 35 35 37 37 37 38 38 38 39 39 40 41 41 42 42 43 42 42 41 40
8 10 11 12 14 14 15 15 15 15 15 15 16 16 16 15 15 14 13 13 12 11 11 11 12 12 12 12 13 13 13 13 13 12 12 12 12 12 12 13 13 14 15 16 16 17 18 19 20 20 21 22 23 24 24 25 25 26 26 27 28 28 29 29 30 31 32 33 33 34 34 35 35 35 36 36 36 37 37 38 39 40 40 41 41
6 6 7 9 11 12 13 14 13 13 12 12 12 13 13 14 13 13 13 13 13 12 12 12 12 12 11 10 10 10 10 10 10 10 10 10 9 9 10 10 10 11 12 13 14 14 15 15 16 17 17 18 19 20 21 22 22 23 24 24 25 25 26 26 27 27 28 28 29 29 30 31 31 32 32 32 33 33 33 33 34 35 36 36 37
7 6 4 5 7 8 10 11 12 12 11 10 10 10 10 11 11 12 12 12 12 12 12 12 12 12 11 10 9 9 9 8 7 7 7 6 6 6 7 7 8 8 9 10 10 11 11 12 12 13 14 15 16 17 18 19 20 20 21 22 22 23 23 24 24 25 25 25 25 26 26 27 27 28 28 29 29 29 29 30 30 30 31 31 32
10 8 6 4 3 5 6 7 8 9 10 10 9 8 8 8 8 9 10 11 11 12 12 12 11 10 9 9 9 9 9 8 7 6 5 5 4 4 4 4 5 5 6 7 7 7 8 9 10 10 11 12 13 14 15 16 17 18 19 20 20 21 21 22 22 22 22 22 22 22 23 23 23 24 24 25 25 26 26 26 27 27 27 27 27
13 10 9 7 6 5 6 7 7 7 9 9 9 8 7 6 7 7 8 9 10 11 11 11 10 9 9 8 8 8 8 8 7 7 5 4 4 3 2 1 2 2 3 4 4 5 5 6 7 8 9 10 11 11 12 14 15 16 17 18 18 19 19 20 20 20 20 20 20 20 20 20 20 21 21 21 22 22 22 23 23 24 24 24 24
16 14 12 10 9 8 8 8 9 9 10 10 10 9 7 7 6 6 7 8 8 8 8 8 8 9 10 10 8 8 8 8 7 7 5 4 2 2 2 2 2 2 2 2 3 3 4 5 6 7 7 8 9 10 11 12 13 14 15 16 17 17 17 17 18 19 19 19 18 18 18 18 18 18 18 19 19 19 19 20 20 20 20 20 20
18 16 15 14 13 11 10 9 9 11 12 13 13 12 10 9 8 7 6 8 8 7 5 5 6 8 9 9 8 8 8 8 7 7 7 6 4 2 1 3 4 5 5 5 5 6 6 6 7 7 8 8 9 9 10 11 12 12 13 14 15 15 16 16 16 16 17 18 18 17 17 17 16 16 16 17 17 17 17 17 17 17 17 17 16
21 19 18 17 16 15 14 13 13 14 15 15 15 15 14 13 12 10 9 8 8 8 7 6 6 7 7 7 7 7 8 8 7 7 7 7 7 6 5 5 5 6 6 7 8 8 8 9 9 10 11 11 11 12 12 13 13 14 14 14 14 14 14 16 16 16 15 15 16 17 16 16 15 15 15 15 16 16 16 15 15 14 14 14 13
22 20 19 19 19 19 18 17 17 17 18 18 17 17 17 16 15 14 12 10 9 9 9 8 8 8 8 8 7 8 9 9 8 8 8 7 7 7 7 7 8 8 8 9 9 9 9 10 10 11 12 13 13 14 14 14 15 15 16 16 16 15 14 14 16 17 16 15 14 15 15 15 15 15 15 15 15 15 15 14 14 13 12 12 12
25 23 22 21 21 21 21 21 21 21 20 21 19 18 18 18 18 18 16 13 12 12 11 10 10 10 11 11 10 10 10 11 11 10 10 10 10 9 9 9 8 9 10 10 10 11 11 11 11 12 13 13 14 15 15 16 16 16 16 17 17 17 16 15 15 15 16 17 16 16 15 15 15 14 14 14 14 15 15 14 13 12 12 11 11
32 30 27 25 24 23 22 22 24 24 24 23 22 21 20 20 20 19 18 16 15 15 14 14 13 13 14 13 13 12 12 13 13 13 12 11 12 12 12 10 10 9 10 10 10 11 12 13 13 13 13 14 15 15 16 17 17 18 18 17 17 16 16 16 15 14 14 15 16 16 15 15 14 14 14 14 13 13 13 14 13 12 12 11 10
36 34 32 30 28 27 26 25 26 27 27 27 25 24 23 23 22 21 20 18 17 17 16 16 16 17 17 17 15 14 14 14 14 14 14 14 13 13 13 13 12 11 11 10 10 10 12 13 13 14 14 15 15 15 16 16 17 17 18 18 17 17 17 17 17 16 14 13 13 14 14 14 14 13 13 13 13 13 13 12 12 12 12 11 10
40 39 36 34 33 32 31 30 29 30 30 30 29 28 27 27 26 24 23 21 20 19 19 18 18 19 19 19 18 17 16 16 16 17 17 17 17 16 15 15 14 13 12 12 12 13 13 14 14 15 14 15 16 16 16 16 16 16 18 18 18 17 17 17 17 17 16 15 14 14 13 13 14 14 13 13 12 13 13 13 13 13 13 12 11
39 39 39 39 38 37 36 35 35 34 32 32 32 32 32 31 30 29 28 26 24 23 22 21 21 20 21 21 20 20 19 19 20 21 21 21 21 20 20 18 17 15 14 15 15 16 16 15 15 15 15 15 16 17 17 16 15 16 17 19 19 18 17 17 17 16 15 15 15 14 14 13 13 13 13 13 12 12 13 12 12 12 12 13 13
37 35 35 38 41 41 39 38 38 37 36 34 35 36 36 35 35 33 32 30 29 27 26 25 25 25 25 24 23 24 24 23 23 24 24 24 24 25 25 24 22 20 19 18 17 17 18 18 17 16 16 15 15 15 15 16 15 16 17 18 19 19 19 18 19 18 16 14 13 13 13 13 13 13 13 13 13 13 13 13 13 12 13 13 13
37 34 33 36 41 41 41 40 40 40 40 40 40 41 40 39 38 37 36 35 34 32 31 30 30 30 30 30 29 29 29 29 29 28 28 28 28 29 29 29 28 27 25 23 21 21 21 21 21 20 19 18 16 14 14 14 16 17 18 19 19 20 19 19 20 21 20 18 15 14 13 13 13 14 14 14 14 14 14 14 14 15 15 16 15
39 41 43 46 47 46 44 42 41 41 42 43 43 42 40 40 39 38 38 37 36 36 35 34 33 34 35 35 35 35 35 35 34 33 32 33 34 34 33 32 33 33 31 29 27 25 25 24 24 23 22 20 18 15 14 15 16 18 19 20 20 21 20 20 21 22 23 22 19 17 17 16 15 15 16 17 16 16 16 16 17 18 19 19 18
44 48 51 52 53 51 48 45 43 44 45 46 45 43 42 41 41 40 40 39 38 37 37 36 36 36 37 37 37 39 40 40 40 40 39 40 41 40 38 36 34 34 34 34 32 30 28 27 26 25 24 22 19 17 17 17 18 19 20 20 20 21 22 22 23 24 26 26 24 21 20 20 19 18 19 19 20 20 19 19 20 21 22 22 21
Wind_Direction
227 241 248 253 240 245 257 252 259 276 292 301 307 313 311 309 312 320 324 327 344 13 11 10 9 5 4 6 357 350 353 353 345 343 348 355 360 1 360 1 7 8 4 6 5 5 3 2 9 12 6 0 358 2 5 8 8 14 48 144 161 178 210 230 317 7 28 36 20 18 17 10 11 13 15 18 21 20 18 25 29 27 33 48 68
215 211 218 226 223 232 241 246 268 282 292 302 315 321 319 322 329 340 348 1 20 16 9 9 8 4 3 4 352 348 354 350 342 343 349 355 358 359 0 2 8 7 4 5 4 4 3 3 9 8 4 3 2 5 8 7 5 19 59 137 156 167 184 197 243 35 39 30 26 29 27 21 22 23 24 24 27 28 25 30 37 37 43 60 77
159 180 196 210 223 240 259 272 284 289 300 317 330 329 330 343 358 11 22 25 17 11 9 7 9 8 6 1 350 350 355 351 348 347 349 351 354 359 1 2 5 5 5 6 3 3 3 5 7 4 4 5 4 7 10 6 2 22 72 135 151 152 143 119 68 50 40 32 36 40 37 32 31 32 30 29 32 35 33 35 41 44 49 63 79
180 199 223 255 275 283 289 294 303 318 337 346 345 345 358 19 25 26 25 22 15 12 13 13 17 14 7 360 353 357 6 1 355 352 347 345 351 358 0 2 4 6 7 7 4 3 4 6 6 3 5 7 6 7 10 5 4 27 81 134 150 146 132 110 78 59 50 46 47 47 44 39 38 38 36 35 37 40 41 41 44 49 53 63 78
189 264 326 339 340 338 338 350 6 12 14 12 11 18 27 27 22 16 16 19 21 19 21 23 21 14 9 8 5 10 23 14 360 354 347 344 353 358 358 2 7 10 10 8 5 4 6 7 6 4 5 9 9 8 10 5 7 34 92 136 150 144 130 113 89 69 59 55 52 52 50 47 45 45 43 40 41 45 48 48 48 52 57 64 77
65 60 57 52 46 41 39 35 32 29 26 28 31 33 30 25 21 16 15 22 26 24 26 27 22 23 27 25 21 26 30 18 2 357 352 353 360 2 3 6 10 13 11 8 8 8 7 6 6 5 4 8 11 10 11 6 10 38 95 138 149 144 129 112 92 71 60 57 56 55 55 53 51 51 50 48 45 47 52 55 55 56 60 67 77
67 65 62 58 53 49 44 39 33 28 27 28 32 34 30 29 29 22 22 30 35 33 36 37 34 42 46 39 32 33 29 17 7 3 3 6 9 7 8 9 11 14 12 10 10 9 6 5 6 4 1 7 14 13 12 11 14 37 97 140 149 144 129 111 91 69 59 57 57 58 58 58 57 55 55 54 51 50 54 59 61 62 65 70 78
64 60 55 50 46 44 40 36 30 28 30 32 36 37 34 31 30 31 35 45 50 52 56 56 55 57 59 53 38 30 26 19 15 13 16 19 16 10 8 9 12 16 14 11 11 8 5 6 7 2 1 9 16 17 16 17 20 40 100 139 148 145 132 114 92 69 57 54 56 59 61 62 61 59 58 58 58 56 56 60 65 68 70 74 81
60 55 50 47 44 43 41 37 34 33 34 35 35 36 38 37 35 40 49 59 63 66 71 72 72 68 64 59 40 29 28 28 27 25 25 24 17 12 9 10 14 17 15 11 12 10 8 9 6 1 5 14 20 23 23 24 30 52 103 135 146 145 135 115 95 72 58 54 54 58 62 65 65 63 61 61 62 62 61 61 65 71 75 78 83
57 54 51 49 47 46 45 44 42 42 41 40 40 40 43 45 45 50 59 69 71 72 78 80 76 70 62 53 42 34 33 34 34 30 24 20 16 12 11 11 14 15 14 12 13 13 12 10 5 5 13 20 25 29 32 34 42 68 104 130 142 143 133 116 98 78 61 55 56 59 62 66 68 68 67 64 65 67 67 66 67 70 76 81 85
56 54 52 50 49 49 49 49 48 49 50 49 50 51 52 52 55 60 69 75 76 76 79 77 70 64 58 50 46 41 38 38 37 30 23 20 17 14 14 15 17 16 13 13 14 16 16 13 9 13 21 27 31 35 40 44 56 77 102 125 137 138 130 116 99 82 66 59 59 63 65 67 70 71 71 70 68 69 71 73 72 72 75 81 87
56 53 51 50 50 50 51 50 51 53 54 55 58 60 60 61 64 70 76 79 81 80 76 74 68 60 57 55 53 48 43 44 43 37 32 27 23 20 20 22 23 21 16 14 16 19 19 17 15 21 29 34 37 41 47 54 65 81 97 120 133 134 129 115 98 83 71 64 63 67 69 68 69 71 73 74 74 73 73 76 78 79 79 81 86
56 53 51 50 50 51 51 51 52 53 55 57 61 63 65 68 72 75 79 83 84 82 75 72 68 60 59 62 61 57 54 51 48 42 35 31 29 24 23 26 26 25 22 17 18 22 23 21 22 28 35 39 42 46 52 60 71 81 92 112 127 131 127 112 97 83 73 69 68 70 71 70 69 70 72 75 77 78 78 78 81 84 85 86 87
54 51 50 49 49 49 50 51 51 53 55 57 61 65 68 71 74 74 74 77 80 81 77 72 69 65 65 67 67 64 60 54 47 40 34 31 31 28 26 27 28 28 27 21 21 26 27 27 29 34 39 43 45 49 55 63 72 81 87 103 119 127 123 110 96 84 77 74 73 73 73 73 72 72 73 75 78 81 82 83 84 86 89 91 92
52 50 49 49 48 48 49 51 52 54 56 58 61 66 70 72 74 75 74 72 73 77 78 76 74 72 70 69 68 64 59 52 46 40 35 34 34 33 31 30 30 32 32 27 26 29 31 33 36 39 43 46 46 49 56 63 71 79 85 94 108 120 122 111 98 86 80 79 76 75 75 75 75 75 75 76 77 80 83 86 87 89 91 93 96
53 51 50 50 50 50 51 53 55 56 58 60 63 67 71 74 75 76 76 75 75 77 78 78 78 76 74 71 66 61 56 52 48 44 41 39 38 39 38 35 34 37 36 34 34 34 36 39 41 43 47 48 48 50 55 62 69 76 83 88 97 110 117 114 103 90 84 82 80 76 75 76 76 77 77 78 79 79 82 85 89 92 94 96 98
55 53 52 52 52 52 53 54 57 60 61 61 64 67 71 74 76 77 78 79 81 81 82 81 79 77 75 71 66 61 57 55 52 50 47 45 45 45 45 42 40 40 42 42 42 42 42 43 44 48 52 52 52 52 55 61 67 72 79 84 89 98 108 111 106 96 88 86 83 79 78 77 76 77 78 79 80 80 81 82 86 90 95 98 99
56 54 53 53 53 53 55 56 58 61 65 65 65 67 70 73 76 78 79 82 83 83 83 83 81 78 76 73 70 66 62 60 58 56 54 53 52 52 51 49 47 47 48 49 49 49 49 49 50 52 55 55 56 56 57 60 64 68 72 78 85 93 102 108 105 98 91 87 84 81 79 78 77 77 77 78 80 81 81 81 82 86 91 96 100
55 54 53 53 53 54 56 58 59 61 66 69 69 70 71 73 76 79 82 83 83 83 83 82 81 80 78 76 75 72 68 67 66 65 63 60 58 57 56 55 54 53 53 53 53 54 55 56 56 58 58 58 59 59 59 61 64 67 69 74 81 89 99 105 105 99 93 89 85 82 80 80 79 78 77 76 77 79 80 80 81 81 84 90 96
52 52 53 53 53 54 56 59 60 61 65 69 72 74 75 76 78 80 82 82 82 82 83 83 83 82 81 81 81 79 76 75 74 72 69 65 61 59 58 57 57 58 57 57 57 59 60 61 61 62 62 62 62 62 62 63 65 67 69 71 76 83 93 101 103 99 94 90 87 84 82 80 80 79 78 77 76 76 78 80 81 82 82 83 87
48 49 51 53 53 54 56 59 60 62 65 69 73 76 77 79 79 80 81 82 82 83 85 87 87 86 86 85 86 86 84 82 80 76 73 70 66 62 60 60 61 62 62 62 63 63 64 65 65 65 65 65 65 65 65 65 65 67 69 71 73 77 84 93 99 98 94 92 89 87 84 82 81 80 80 78 78 78 78 81 84 86 85 83 83
47 48 50 53 54 55 56 58 61 63 65 69 72 75 77 78 79 79 79 80 82 85 88 89 90 91 91 91 91 90 87 84 81 79 76 73 71 69 67 66 66 65 66 67 67 67 68 67 68 68 68 68 68 67 67 67 67 68 69 71 72 73 76 82 88 91 91 89 89 88 87 85 83 82 81 81 79 80 81 83 87 90 90 87 86
49 49 51 53 54 55 56 58 62 64 65 67 70 73 74 75 75 76 77 79 82 84 86 89 91 94 96 96 96 93 89 86 83 80 78 76 75 74 73 72 70 70 70 70 70 70 71 70 70 70 70 70 70 70 70 70 70 70 70 70 72 72 74 75 78 80 81 81 82 82 82 82 82 83 85 85 83 82 83 86 90 93 92 90 90
52 52 53 55 55 56 56 58 62 66 68 68 70 71 73 74 74 75 76 79 81 83 85 87 91 94 97 99 98 94 89 85 83 81 79 78 77 76 75 74 73 72 72 72 72 72 72 72 73 73 73 73 73 73 72 73 72 72 72 72 72 73 74 74 75 76 76 76 76 76 77 79 81 83 85 87 89 88 87 88 92 95 95 94 94
53 53 54 56 57 57 57 58 60 65 70 71 72 73 74 75 76 77 78 79 81 83 84 86 90 95 99 99 96 91 87 83 79 77 77 77 77 77 76 76 75 74 74 74 74 74 74 74 75 74 74 74 74 74 75 75 75 75 75 74 74 74 75 75 75 76 76 76 76 76 76 77 79 81 83 86 89 91 92 92 94 96 98 98 98
54 53 54 56 58 59 59 59 59 62 68 72 74 75 76 77 78 79 79 79 80 81 83 86 91 97 99 98 94 90 86 81 77 74 74 75 76 76 77 77 76 75 75 75 75 74 75 74 74 74 74 74 75 75 75 76 76 76 76 76 76 76 76 76 76 76 76 76 76 77 76 76 77 78 79 82 85 89 92 94 95 97 99 101 102
55 54 54 54 56 58 59 60 60 61 63 68 73 75 77 79 80 82 82 82 81 81 82 85 90 95 97 94 90 86 82 79 77 76 76 76 77 78 79 79 78 77 76 75 75 74 74 73 73 73 73 74 74 75 75 76 76 76 77 77 77 77 76 76 77 76 77 77 77 77 77 76 76 77 77 78 81 84 87 90 93 96 99 102 104
54 54 54 53 54 55 57 59 61 63 63 65 69 74 78 82 84 86 86 85 84 83 82 83 85 88 89 87 85 83 81 81 81 81 79 78 79 81 83 81 80 78 76 75 74 73 72 72 72 72 71 72 73 73 74 74 75 75 76 76 76 76 76 76 76 76 76 76 77 77 77 76 76 76 77 77 78 79 82 84 87 90 93 96 100
55 55 54 54 53 53 54 56 58 62 65 67 69 73 78 83 87 89 89 88 86 84 82 81 82 83 85 84 83 83 84 84 84 83 81 79 80 82 83 83 80 78 75 74 72 71 70 70 70 70 70 70 71 71 72 72 73 73 73 74 74 75 75 75 76 76 76 76 76 76 76 76 76 76 76 76 76 77 78 80 81 83 86 88 91
55 56 55 54 54 54 53 53 53 56 61 67 72 75 79 83 87 90 91 91 90 86 82 77 76 79 83 85 84 83 83 84 85 84 82 82 82 82 83 83 81 79 76 74 71 69 68 67 66 66 66 67 68 68 69 69 70 70 71 71 72 72 72 73 73 73 74 74 75 75 76 76 76 76 76 75 75 76 76 77 78 79 80 81 82
53 55 56 56 55 55 54 53 52 51 53 59 67 73 78 82 86 89 91 93 92 87 79 71 69 76 84 86 84 83 83 84 84 83 83 82 82 83 82 82 81 80 77 74 70 67 65 63 62 61 60 61 62 63 64 65 66 67 68 68 69 69 69 70 70 70 71 71 72 73 74 74 75 75 76 75 75 75 75 75 76 77 78 78 79
50 51 53 55 55 55 55 54 53 51 49 50 56 63 71 76 81 84 87 89 89 84 74 63 62 73 85 87 84 83 84 84 84 83 82 82 82 82 82 80 78 76 73 69 65 63 61 59 58 57 56 56 56 57 58 59 60 61 62 63 64 65 66 66 67 67 68 68 69 70 71 71 72 73 74 74 75 75 75 75 75 75 76 77 78
44 45 46 49 51 52 53 54 54 54 51 48 47 50 56 64 70 74 74 74 74 71 65 60 62 74 87 89 84 81 82 84 85 85 84 82 81 82 81 79 76 73 68 64 61 59 58 57 55 55 54 54 54 54 54 54 55 55 56 56 57 59 59 60 61 62 63 64 66 67 67 67 68 69 70 71 72 72 73 74 75 75 75 75 77
29 37 40 41 41 43 47 49 51 52 53 51 47 45 44 48 55 61 65 64 62 60 58 58 62 74 88 92 86 82 81 81 82 83 85 85 84 82 80 78 76 73 69 65 62 59 57 56 55 53 51 51 50 50 51 51 51 51 51 51 52 53 53 54 55 56 57 59 60 62 63 64 64 65 66 67 68 69 69 70 72 73 73 74 75
357 15 31 37 36 34 36 39 41 43 48 50 49 46 42 39 40 44 50 55 57 57 57 55 56 63 72 79 80 78 79 82 82 80 80 82 85 84 81 77 74 71 69 65 62 59 57 55 53 52 50 47 46 45 45 45 45 45 46 47 47 47 47 48 48 50 51 53 54 55 57 58 59 60 61 62 64 65 66 67 67 68 69 70 71
315 328 352 23 30 27 27 29 31 31 33 37 41 43 43 38 34 33 35 39 42 44 47 50 52 53 56 60 62 64 70 77 82 83 80 79 83 85 81 77 72 68 65 62 59 56 54 52 50 49 46 43 41 39 39 39 39 40 40 41 41 42 42 42 42 43 45 46 47 49 50 51 53 54 55 56 58 59 60 62 64 65 66 67 68
291 298 305 316 347 1 5 11 17 18 18 20 23 27 32 33 29 27 25 25 27 30 32 37 43 45 47 52 54 56 61 66 70 78 87 93 97 99 89 76 70 64 60 56 53 49 48 48 46 43 40 37 35 32 31 32 33 34 34 34 34 35 36 37 37 38 39 40 41 43 43 44 45 46 48 49 51 52 53 55 57 59 61 63 65
284 291 296 296 301 314 330 340 348 356 359 358 1 4 9 14 16 17 17 13 13 17 20 24 27 25 23 29 36 39 41 45 50 59 75 96 114 125 122 98 62 46 42 39 33 30 31 32 31 30 29 25 23 22 22 23 24 24 25 25 26 26 27 28 30 31 32 33 35 37 38 39 39 39 40 41 43 44 45 47 49 50 52 54 57
278 283 289 290 290 296 307 320 328 334 337 336 334 335 339 343 349 358 4 3 2 8 14 17 13 8 8 11 16 18 16 18 24 32 40 55 89 140 177 206 235 271 304 322 334 343 353 357 359 3 6 8 8 7 8 11 12 12 13 13 15 16 18 19 20 21 23 25 26 28 30 32 34 34 34 34 35 37 38 39 40 42 44 46 47
269 272 279 283 284 288 293 301 309 315 319 321 320 317 317 321 324 329 342 353 355 356 2 6 357 356 356 353 356 1 359 358 3 8 12 14 10 352 282 255 256 264 270 277 285 294 303 312 317 325 333 338 340 344 348 351 354 356 357 359 1 4 5 6 9 10 11 13 15 18 20 23 25 27 28 29 30 31 33 33 33 34 35 37 39
262 264 269 277 281 283 286 290 296 303 307 312 314 312 308 307 308 308 317 336 343 338 334 331 330 338 341 334 330 337 341 341 342 347 351 351 350 341 330 317 302 295 291 288 290 292 294 297 301 306 310 313 317 321 325 330 334 337 341 344 349 353 354 354 356 360 3 4 4 6 9 11 14 16 18 19 22 24 25 27 29 28 28 28 29
258 261 266 271 276 279 282 286 290 296 300 304 309 311 307 301 298 298 303 312 317 317 321 322 314 313 320 321 316 316 322 322 319 321 324 327 331 329 324 319 317 316 316 313 313 313 311 309 310 310 311 312 314 317 320 323 326 330 333 336 339 344 348 348 348 351 356 360 360 359 359 1 3 5 7 9 11 12 14 17 20 22 22 21 20
258 263 268 270 273 275 279 283 288 291 293 296 300 305 306 302 299 298 299 297 295 296 303 309 308 305 305 307 305 306 313 315 313 309 306 309 316 319 316 314 316 322 325 325 324 324 324 325 327 326 325 323 323 323 323 325 327 329 330 331 332 336 341 346 347 348 349 352 355 356 355 355 355 356 360 3 3 3 4 8 10 10 10 11 11
262 265 268 270 272 274 277 281 285 287 289 291 293 296 299 300 299 298 297 292 287 290 294 297 297 298 301 303 304 303 306 310 313 312 307 304 308 311 311 310 311 318 325 327 326 325 324 328 331 333 331 330 330 328 326 328 330 330 328 327 328 332 338 344 348 352 351 348 347 350 351 352 352 352 355 358 359 359 0 3 2 359 358 358 358
260 264 267 269 271 272 275 279 283 286 287 288 290 290 292 294 294 292 292 289 285 286 290 292 291 291 295 300 305 307 308 308 308 308 306 302 300 301 302 301 303 307 311 313 313 314 316 321 325 328 328 328 328 328 329 333 335 331 326 322 323 328 334 338 342 348 353 350 347 349 352 353 354 356 359 359 358 356 356 356 352 347 346 343 340
256 258 260 263 266 268 270 273 278 282 284 285 286 287 287 290 290 286 284 282 281 283 286 288 288 287 288 292 298 302 306 307 305 304 301 298 294 292 291 291 292 293 294 294 295 297 302 310 316 319 321 323 323 325 332 339 339 333 327 322 322 324 327 328 330 335 340 341 343 349 353 354 356 1 4 4 0 356 354 350 345 340 337 334 331
258 260 260 259 259 262 265 268 271 275 279 282 284 284 284 285 286 285 282 278 275 276 279 282 283 282 282 286 290 293 295 298 300 302 302 299 294 291 287 284 281 279 277 276 278 281 286 293 302 308 312 315 318 322 331 337 337 333 328 325 324 325 325 323 320 320 324 326 329 335 341 345 349 354 359 3 3 359 356 351 343 334 330 329 329
256 261 264 260 255 256 261 265 268 271 275 279 282 283 283 282 282 284 283 280 276 273 273 275 277 277 278 280 282 284 286 288 291 294 296 298 297 294 290 285 280 276 272 268 266 268 274 280 286 290 294 300 306 313 321 326 326 325 323 322 321 322 324 324 319 314 313 313 314 319 324 329 334 337 340 346 349 349 350 348 341 332 330 332 332
254 254 257 259 259 260 261 263 264 267 271 276 279 281 281 280 280 281 281 280 277 273 271 272 273 274 276 278 279 280 280 282 283 285 287 290 293 293 291 287 282 279 276 272 267 264 265 269 272 275 278 285 292 298 304 308 310 313 314 315 315 316 319 319 317 312 309 307 306 307 310 315 319 319 319 322 326 328 330 331 328 324 326 330 333
255 253 252 256 261 264 265 263 261 264 269 273 276 277 277 277 277 278 279 279 277 275 273 272 273 274 276 278 280 282 282 282 282 282 283 286 287 289 289 287 284 282 280 276 271 267 264 264 266 268 270 276 283 289 291 292 295 299 304 307 308 310 311 310 308 307 305 303 301 302 304 306 308 307 305 305 307 308 310 311 310 310 314 319 321
252 253 254 255 258 261 264 264 265 270 275 275 274 274 276 277 278 279 279 276 274 274 275 273 272 272 273 275 279 283 284 284 284 284 284 285 285 285 285 284 284 282 280 276 274 271 266 263 263 265 267 270 276 282 287 291 293 295 297 299 301 301 301 299 299 300 300 299 299 299 299 300 300 300 299 299 299 299 298 298 297 298 303 306 307
Height
10950 10950 10950 10950 10950 10950 10950 10950 10950 10949 10949 10948 10947 10946 10945 10944 10943 10942 10941 10940 10939 10939 10939 10938 10937 10937 10936 10935 10934 10933 10932 10931 10930 10929 10928 10927 10925 10924 10922 10920 10918 10915 10913 10911 10909 10906 10904 10901 10899 10898 10897 10894 10892 10890 10888 10886 10885 10884 10883 10882 10881 10879 10876 10875 10875 10875 10875 10875 10875 10873 10871 10868 10864 10860 10852 10843 10831 10819 10804 10786 10768 10753 10741 10732 10727
10949 10950 10950 10950 10950 10950 10950 10950 10949 10949 10948 10947 10946 10945 10944 10943 10943 10942 10941 10940 10940 10939 10939 10938 10938 10937 10936 10935 10934 10933 10932 10932 10931 10930 10929 10927 10926 10924 10922 10920 10918 10916 10914 10911 10909 10907 10904 10901 10899 10898 10896 10894 10891 10889 10887 10886 10884 10884 10882 10882 10881 10881 10880 10878 10878 10878 10877 10876 10875 10874 10872 10869 10865 10860 10852 10844 10834 10823 10810 10793 10777 10764 10752 10743 10737
10949 10950 10950 10950 10950 10950 10950 10949 10949 10948 10948 10947 10946 10945 10944 10943 10942 10942 10942 10941 10940 10940 10939 10938 10938 10937 10937 10936 10935 10934 10933 10932 10931 10930 10930 10928 10926 10925 10923 10921 10919 10916 10914 10912 10909 10907 10904 10901 10899 10897 10895 10893 10891 10889 10887 10885 10884 10883 10882 10882 10882 10882 10881 10881 10880 10879 10878 10877 10876 10874 10872 10868 10864 10859 10853 10847 10839 10829 10817 10803 10789 10777 10766 10757 10751
10950 10950 10950 10950 10950 10950 10950 10949 10949 10948 10947 10946 10945 10944 10944 10943 10943 10943 10942 10942 10941 10940 10939 10939 10938 10938 10937 10936 10935 10934 10933 10933 10932 10931 10930 10929 10927 10925 10924 10921 10919 10917 10914 10912 10909 10907 10904 10902 10899 10897 10895 10893 10890 10888 10887 10885 10884 10883 10882 10881 10882 10882 10882 10882 10881 10881 10880 10879 10877 10875 10872 10869 10865 10861 10856 10850 10844 10835 10825 10814 10802 10791 10782 10775 10770
10951 10951 10951 10950 10950 10950 10949 10949 10948 10947 10946 10946 10945 10945 10944 10943 10943 10943 10942 10942 10941 10941 10940 10939 10938 10938 10938 10937 10936 10935 10934 10933 10933 10932 10931 10929 10928 10926 10924 10922 10920 10917 10914 10912 10910 10907 10904 10902 10900 10897 10895 10892 10890 10888 10886 10885 10883 10883 10882 10881 10882 10882 10883 10883 10882 10882 10881 10880 10878 10876 10874 10871 10868 10864 10860 10855 10848 10841 10833 10825 10816 10807 10799 10794 10790
10951 10951 10951 10951 10950 10950 10950 10949 10948 10947 10946 10946 10945 10945 10944 10944 10943 10943 10943 10942 10941 10941 10940 10939 10939 10939 10938 10937 10937 10936 10935 10934 10933 10932 10931 10930 10929 10927 10925 10923 10920 10917 10915 10912 10910 10907 10905 10902 10900 10897 10895 10892 10890 10888 10886 10885 10883 10883 10882 10881 10882 10883 10883 10883 10883 10883 10882 10881 10880 10878 10876 10874 10871 10868 10863 10858 10853 10848 10842 10836 10829 10823 10816 10812 10809
10952 10952 10952 10951 10951 10950 10950 10949 10948 10948 10947 10946 10946 10945 10945 10944 10944 10943 10943 10942 10941 10941 10940 10940 10940 10939 10938 10938 10938 10937 10936 10935 10934 10933 10932 10931 10930 10928 10926 10923 10920 10918 10915 10913 10910 10907 10905 10903 10900 10897 10895 10893 10890 10888 10887 10885 10884 10883 10882 10882 10882 10883 10883 10884 10884 10883 10883 10882 10881 10879 10878 10876 10873 10870 10866 10862 10858 10854 10849 10845 10841 10836 10832 10828 10826
10953 10953 10953 10952 10952 10951 10950 10950 10949 10948 10948 10947 10946 10946 10945 10945 10944 10943 10943 10942 10942 10941 10941 10940 10940 10940 10939 10938 10939 10938 10937 10936 10936 10934 10933 10932 10930 10928 10926 10923 10921 10918 10916 10913 10910 10908 10905 10903 10900 10897 10895 10893 10891 10889 10887 10885 10884 10883 10882 10882 10883 10884 10884 10884 10884 10884 10883 10882 10882 10880 10879 10877 10875 10872 10869 10866 10863 10860 10857 10853 10850 10847 10845 10842 10841
10954 10954 10954 10953 10952 10952 10951 10950 10950 10949 10948 10947 10947 10946 10946 10945 10944 10944 10943 10943 10942 10942 10941 10941 10941 10940 10940 10939 10940 10940 10939 10938 10937 10935 10934 10933 10930 10928 10926 10924 10921 10919 10917 10914 10911 10908 10905 10903 10900 10898 10895 10893 10891 10889 10887 10886 10885 10883 10883 10883 10884 10885 10885 10885 10886 10885 10885 10884 10883 10882 10880 10879 10877 10875 10873 10871 10868 10865 10863 10861 10859 10857 10855 10854 10853
10956 10955 10955 10954 10954 10953 10952 10951 10950 10949 10948 10947 10947 10946 10946 10945 10945 10944 10944 10944 10943 10943 10942 10942 10942 10941 10941 10941 10941 10941 10940 10939 10937 10936 10935 10933 10931 10929 10926 10924 10922 10920 10917 10915 10911 10909 10906 10903 10900 10898 10896 10894 10892 10890 10888 10887 10885 10884 10884 10885 10885 10886 10886 10887 10887 10887 10886 10885 10884 10883 10882 10881 10880 10878 10877 10875 10873 10871 10869 10868 10866 10865 10864 10863 10863
10957 10957 10956 10955 10955 10954 10953 10952 10951 10949 10949 10948 10947 10946 10946 10945 10945 10945 10945 10944 10944 10944 10943 10943 10943 10943 10942 10942 10942 10942 10941 10940 10938 10936 10935 10933 10931 10929 10927 10925 10922 10920 10918 10915 10912 10909 10906 10904 10901 10899 10897 10895 10893 10891 10889 10888 10887 10886 10886 10886 10887 10887 10888 10888 10888 10888 10888 10887 10886 10885 10884 10883 10883 10881 10880 10878 10877 10875 10874 10873 10873 10872 10872 10871 10871
10959 10959 10958 10957 10956 10954 10953 10952 10951 10950 10949 10948 10947 10947 10946 10946 10946 10946 10946 10945 10945 10945 10945 10944 10944 10944 10944 10943 10943 10943 10942 10941 10939 10937 10935 10933 10931 10929 10927 10925 10923 10921 10919 10916 10912 10909 10907 10904 10902 10900 10898 10896 10894 10892 10891 10889 10888 10888 10888 10888 10889 10889 10889 10890 10890 10890 10889 10889 10888 10887 10886 10886 10885 10884 10883 10882 10881 10879 10879 10878 10878 10878 10878 10878 10878
10962 10961 10959 10958 10957 10956 10954 10953 10952 10951 10950 10949 10948 10948 10947 10947 10947 10947 10946 10946 10946 10946 10946 10946 10946 10946 10945 10944 10944 10944 10943 10942 10940 10938 10936 10934 10932 10930 10928 10926 10923 10921 10919 10916 10913 10910 10907 10905 10903 10901 10899 10897 10895 10894 10892 10891 10890 10890 10890 10890 10891 10891 10891 10891 10891 10891 10891 10891 10890 10889 10888 10888 10887 10887 10886 10885 10884 10883 10882 10882 10882 10882 10883 10883 10884
10963 10962 10961 10959 10958 10957 10956 10954 10953 10952 10951 10950 10950 10949 10948 10948 10948 10947 10947 10947 10947 10947 10947 10947 10947 10947 10947 10946 10945 10945 10944 10943 10941 10939 10937 10935 10933 10931 10929 10927 10924 10922 10919 10917 10914 10911 10908 10907 10905 10902 10900 10899 10897 10895 10894 10893 10892 10892 10892 10892 10892 10893 10893 10893 10893 10893 10893 10892 10892 10891 10890 10890 10889 10889 10889 10888 10887 10887 10886 10885 10885 10886 10886 10887 10888
10966 10964 10963 10961 10960 10958 10957 10956 10955 10953 10952 10952 10951 10950 10950 10949 10948 10948 10948 10949 10949 10948 10948 10949 10949 10949 10949 10948 10947 10947 10946 10945 10943 10941 10939 10937 10935 10933 10931 10928 10925 10923 10921 10918 10915 10912 10910 10908 10906 10904 10902 10900 10899 10897 10896 10895 10894 10894 10894 10894 10894 10894 10894 10894 10894 10895 10895 10894 10894 10893 10893 10892 10892 10891 10891 10891 10890 10890 10889 10889 10889 10889 10889 10890 10891
10968 10966 10965 10963 10962 10961 10959 10958 10956 10955 10954 10953 10952 10952 10951 10950 10950 10949 10949 10950 10950 10950 10951 10951 10950 10950 10951 10951 10950 10949 10948 10946 10945 10943 10941 10939 10937 10935 10933 10930 10927 10925 10922 10920 10916 10914 10912 10910 10908 10906 10904 10902 10901 10899 10898 10897 10896 10896 10896 10895 10895 10895 10896 10896 10896 10896 10896 10896 10896 10895 10895 10894 10894 10894 10894 10893 10893 10893 10893 10892 10892 10892 10892 10893 10894
10970 10969 10967 10966 10964 10963 10962 10960 10959 10957 10956 10955 10954 10953 10953 10952 10952 10951 10951 10952 10952 10952 10953 10953 10953 10952 10953 10953 10952 10951 10950 10948 10947 10945 10943 10941 10939 10937 10934 10932 10929 10927 10925 10922 10919 10917 10915 10912 10911 10909 10906 10905 10903 10902 10900 10899 10898 10897 10897 10897 10897 10897 10897 10897 10898 10898 10898 10898 10898 10898 10897 10897 10896 10896 10896 10896 10896 10896 10896 10895 10896 10896 10896 10896 10897
10973 10971 10970 10969 10967 10965 10964 10962 10961 10959 10958 10957 10956 10955 10954 10954 10954 10954 10954 10954 10955 10955 10955 10955 10955 10955 10955 10956 10955 10954 10952 10951 10950 10948 10946 10944 10942 10939 10937 10934 10932 10930 10927 10924 10921 10919 10917 10915 10914 10911 10908 10907 10906 10904 10903 10901 10900 10899 10899 10899 10899 10899 10899 10899 10900 10900 10900 10900 10900 10900 10899 10899 10899 10899 10899 10899 10898 10898 10898 10898 10898 10899 10899 10899 10900
10976 10974 10973 10971 10970 10968 10966 10964 10963 10962 10960 10959 10958 10957 10957 10957 10957 10956 10957 10957 10958 10958 10958 10958 10958 10958 10958 10958 10957 10956 10955 10954 10953 10951 10949 10947 10944 10942 10939 10937 10935 10933 10929 10926 10924 10923 10920 10918 10916 10914 10911 10910 10908 10906 10905 10904 10902 10902 10901 10901 10901 10901 10901 10901 10902 10902 10902 10902 10902 10902 10902 10901 10901 10901 10901 10901 10901 10901 10901 10901 10901 10901 10902 10902 10902
10979 10977 10975 10974 10972 10971 10969 10967 10965 10964 10963 10962 10961 10960 10960 10960 10960 10959 10960 10960 10960 10961 10961 10961 10961 10961 10960 10960 10959 10959 10958 10957 10956 10954 10952 10950 10947 10945 10942 10940 10938 10936 10933 10930 10928 10926 10924 10922 10920 10917 10915 10913 10911 10909 10908 10907 10905 10904 10904 10904 10904 10903 10903 10903 10904 10904 10904 10905 10905 10904 10904 10904 10903 10903 10903 10903 10903 10903 10903 10903 10903 10903 10904 10904 10905
10981 10980 10979 10977 10975 10974 10972 10970 10969 10967 10966 10965 10965 10964 10963 10963 10963 10963 10963 10962 10963 10963 10964 10964 10964 10963 10963 10962 10962 10961 10961 10960 10959 10957 10955 10953 10950 10948 10946 10945 10943 10940 10937 10935 10933 10931 10928 10925 10923 10920 10918 10917 10915 10913 10911 10910 10909 10908 10908 10907 10907 10906 10906 10906 10906 10906 10907 10907 10907 10907 10907 10906 10906 10906 10906 10906 10906 10906 10905 10905 10905 10905 10906 10906 10906
10984 10983 10982 10981 10979 10977 10975 10974 10972 10971 10970 10969 10968 10967 10967 10966 10966 10966 10965 10965 10965 10966 10966 10966 10966 10966 10965 10965 10965 10965 10964 10963 10961 10960 10958 10957 10955 10953 10952 10950 10947 10944 10942 10940 10938 10935 10933 10930 10928 10925 10922 10921 10919 10916 10915 10913 10912 10912 10912 10911 10910 10909 10909 10909 10909 10909 10909 10909 10909 10909 10909 10909 10908 10908 10908 10908 10908 10908 10908 10908 10907 10908 10908 10908 10908
10987 10986 10985 10984 10982 10981 10979 10978 10976 10975 10974 10973 10972 10971 10970 10969 10969 10969 10969 10968 10968 10968 10969 10969 10968 10968 10968 10968 10968 10968 10968 10967 10965 10963 10962 10961 10959 10958 10956 10954 10952 10950 10948 10946 10943 10941 10938 10935 10933 10930 10927 10926 10923 10921 10919 10918 10917 10917 10916 10914 10913 10913 10912 10912 10912 10911 10912 10912 10912 10911 10911 10911 10910 10910 10910 10910 10910 10910 10910 10910 10910 10910 10910 10910 10910
10989 10988 10988 10987 10986 10984 10983 10982 10980 10979 10978 10976 10975 10974 10973 10973 10973 10972 10972 10972 10972 10971 10971 10971 10971 10971 10971 10971 10972 10971 10971 10970 10969 10967 10966 10965 10964 10962 10961 10959 10957 10955 10953 10951 10949 10947 10943 10940 10939 10936 10933 10931 10929 10927 10925 10923 10923 10921 10920 10919 10918 10917 10916 10915 10915 10914 10914 10914 10914 10914 10914 10913 10913 10912 10912 10912 10911 10912 10912 10912 10912 10912 10912 10912 10912
10992 10991 10990 10990 10989 10988 10987 10986 10984 10983 10981 10980 10979 10978 10977 10977 10976 10976 10975 10975 10975 10974 10974 10974 10974 10974 10974 10975 10975 10974 10974 10973 10972 10971 10970 10969 10968 10967 10965 10963 10962 10960 10958 10957 10955 10952 10949 10947 10945 10942 10939 10937 10935 10933 10931 10930 10928 10927 10925 10924 10922 10921 10920 10919 10918 10917 10917 10917 10917 10916 10916 10916 10915 10915 10914 10914 10914 10913 10914 10914 10914 10914 10914 10914 10914
10995 10994 10993 10992 10992 10991 10990 10989 10987 10986 10985 10984 10983 10982 10981 10981 10980 10979 10979 10979 10978 10978 10978 10978 10977 10977 10978 10978 10978 10977 10977 10976 10975 10974 10973 10972 10972 10971 10969 10968 10966 10965 10964 10962 10960 10958 10956 10953 10950 10948 10946 10944 10942 10940 10938 10936 10935 10933 10931 10929 10928 10927 10925 10924 10923 10922 10921 10921 10920 10919 10919 10918 10918 10917 10917 10917 10916 10916 10916 10916 10916 10916 10916 10916 10916
10998 10997 10996 10995 10994 10993 10992 10991 10991 10990 10988 10987 10986 10986 10985 10984 10984 10983 10983 10982 10982 10981 10981 10981 10981 10981 10981 10981 10981 10980 10980 10980 10979 10978 10977 10976 10976 10975 10974 10972 10971 10970 10969 10967 10965 10963 10961 10958 10956 10954 10953 10951 10949 10947 10945 10943 10942 10940 10938 10936 10934 10933 10931 10930 10928 10927 10926 10925 10924 10923 10922 10922 10921 10920 10920 10919 10919 10918 10918 10918 10918 10918 10918 10918 10918
11001 11000 10999 10998 10997 10996 10995 10994 10993 10993 10992 10991 10990 10989 10989 10988 10987 10987 10986 10986 10986 10985 10985 10985 10984 10984 10984 10984 10983 10983 10983 10983 10982 10981 10981 10980 10980 10979 10978 10976 10976 10974 10973 10971 10970 10968 10965 10963 10962 10960 10959 10957 10956 10954 10952 10950 10949 10947 10945 10943 10941 10939 10938 10936 10934 10933 10932 10930 10929 10927 10926 10926 10925 10924 10923 10922 10922 10921 10921 10920 10920 10920 10920 10920 10920
11003 11002 11001 11001 11000 10999 10998 10997 10996 10996 10995 10994 10993 10993 10992 10992 10991 10990 10990 10989 10989 10988 10988 10988 10987 10987 10986 10986 10986 10986 10986 10985 10984 10984 10984 10983 10983 10982 10981 10980 10979 10978 10976 10975 10973 10971 10970 10968 10967 10966 10964 10963 10962 10960 10958 10957 10955 10953 10951 10949 10947 10946 10944 10943 10941 10940 10938 10937 10935 10933 10931 10930 10929 10929 10928 10927 10926 10925 10924 10924 10923 10923 10923 10923 10923
11005 11004 11004 11003 11002 11002 11001 11000 10999 10998 10998 10997 10996 10996 10995 10995 10994 10993 10993 10992 10992 10991 10991 10990 10990 10990 10989 10989 10988 10988 10988 10987 10987 10987 10986 10986 10986 10985 10984 10983 10982 10981 10979 10978 10977 10975 10974 10973 10971 10970 10969 10968 10967 10965 10964 10962 10961 10959 10957 10955 10954 10953 10951 10949 10948 10946 10945 10943 10941 10939 10937 10936 10935 10934 10933 10932 10931 10930 10929 10928 10927 10927 10926 10926 10926
11007 11006 11005 11005 11005 11004 11003 11002 11002 11001 11000 10999 10999 10998 10998 10997 10996 10996 10995 10995 10994 10993 10993 10993 10993 10992 10992 10991 10991 10990 10990 10990 10989 10989 10988 10988 10988 10987 10987 10986 10985 10984 10983 10981 10980 10979 10978 10976 10975 10974 10973 10972 10971 10970 10969 10967 10966 10964 10962 10961 10960 10958 10957 10955 10954 10953 10951 10949 10947 10945 10944 10942 10941 10939 10938 10937 10936 10935 10934 10933 10932 10932 10931 10930 10929
11008 11008 11007 11007 11006 11006 11005 11005 11004 11003 11002 11002 11001 11000 11000 10999 10999 10998 10997 10997 10996 10995 10995 10995 10994 10994 10994 10993 10993 10992 10992 10992 10991 10991 10991 10990 10990 10990 10989 10988 10988 10987 10985 10984 10983 10981 10980 10979 10978 10978 10977 10976 10975 10974 10973 10971 10970 10968 10967 10966 10964 10963 10962 10960 10959 10958 10956 10955 10953 10951 10950 10949 10947 10946 10944 10943 10942 10940 10939 10938 10937 10937 10936 10935 10934
11010 11009 11009 11008 11008 11008 11007 11006 11006 11005 11004 11004 11003 11002 11001 11001 11000 11000 10999 10998 10998 10997 10997 10996 10996 10996 10995 10995 10995 10994 10994 10994 10994 10993 10993 10992 10992 10992 10991 10990 10989 10989 10988 10986 10985 10984 10983 10982 10982 10981 10980 10979 10978 10977 10976 10975 10973 10972 10970 10969 10968 10967 10966 10964 10963 10962 10960 10959 10957 10956 10956 10954 10953 10951 10950 10949 10948 10946 10945 10944 10943 10942 10941 10940 10939
11010 11010 11010 11010 11009 11009 11008 11008 11007 11007 11006 11005 11005 11004 11003 11003 11002 11001 11001 11000 10999 10999 10998 10998 10998 10997 10997 10997 10996 10996 10996 10996 10996 10995 10995 10995 10994 10993 10993 10992 10991 10991 10990 10989 10988 10987 10986 10986 10985 10984 10984 10983 10982 10981 10979 10978 10976 10975 10974 10973 10971 10970 10969 10968 10967 10965 10964 10962 10961 10961 10960 10959 10958 10957 10956 10954 10953 10952 10951 10950 10948 10947 10946 10945 10944
11010 11010 11010 11010 11010 11010 11009 11009 11008 11008 11007 11007 11006 11005 11005 11004 11003 11003 11002 11001 11000 11000 10999 10999 10999 10999 10998 10998 10998 10998 10998 10997 10997 10997 10997 10996 10996 10995 10995 10994 10993 10992 10992 10991 10990 10989 10989 10989 10988 10988 10987 10986 10985 10984 10982 10981 10979 10978 10977 10976 10974 10973 10972 10971 10970 10968 10967 10966 10965 10964 10963 10962 10961 10961 10960 10959 10958 10958 10957 10955 10954 10953 10952 10951 10950
11010 11010 11010 11010 11010 11010 11010 11009 11009 11009 11008 11008 11008 11007 11006 11005 11005 11004 11003 11002 11002 11001 11001 11000 11000 10999 10999 10999 10999 10999 10998 10998 10998 10998 10998 10998 10997 10997 10996 10996 10995 10994 10994 10993 10992 10992 10991 10991 10990 10990 10989 10988 10987 10986 10985 10983 10982 10981 10980 10978 10977 10976 10975 10974 10973 10971 10970 10969 10968 10967 10966 10966 10965 10964 10963 10963 10962 10962 10961 10960 10959 10959 10958 10957 10956
11009 11009 11009 11009 11009 11010 11009 11009 11009 11009 11009 11009 11008 11008 11007 11006 11006 11005 11004 11003 11003 11002 11002 11001 11001 11000 11000 10999 10999 10999 10998 10998 10998 10998 10998 10998 10998 10997 10997 10997 10996 10996 10995 10995 10994 10993 10993 10992 10992 10991 10990 10990 10989 10988 10987 10986 10984 10983 10982 10980 10979 10978 10977 10976 10975 10974 10973 10972 10971 10970 10969 10968 10968 10967 10966 10966 10965 10965 10964 10964 10963 10963 10962 10962 10961
11008 11007 11008 11008 11008 11009 11009 11009 11009 11009 11009 11008 11008 11008 11007 11007 11006 11006 11005 11004 11004 11003 11003 11002 11002 11001 11001 11000 10999 10999 10998 10998 10998 10998 10998 10997 10997 10997 10997 10997 10997 10996 10996 10995 10995 10994 10994 10993 10993 10992 10991 10991 10990 10989 10988 10987 10986 10984 10983 10982 10981 10980 10979 10978 10977 10976 10975 10974 10973 10972 10972 10971 10970 10970 10969 10969 10968 10967 10967 10966 10966 10966 10965 10965 10965
11006 11006 11006 11007 11007 11007 11008 11008 11008 11008 11008 11008 11008 11007 11007 11007 11006 11006 11006 11006 11005 11004 11004 11003 11003 11002 11002 11001 11000 10999 10999 10998 10998 10998 10998 10997 10997 10997 10997 10997 10996 10996 10996 10996 10995 10995 10994 10994 10993 10993 10992 10991 10991 10990 10989 10988 10987 10986 10985 10984 10982 10981 10980 10979 10978 10977 10977 10976 10975 10974 10974 10973 10972 10972 10971 10971 10970 10970 10969 10969 10968 10968 10968 10968 10967
11004 11004 11004 11005 11005 11006 11006 11007 11007 11007 11007 11007 11007 11007 11006 11006 11006 11006 11006 11006 11006 11005 11005 11004 11003 11002 11002 11001 11001 11000 11000 10999 10998 10998 10998 10997 10997 10997 10997 10996 10996 10996 10996 10995 10995 10995 10994 10994 10993 10993 10992 10991 10991 10990 10989 10988 10988 10987 10986 10985 10984 10983 10981 10980 10980 10979 10978 10977 10976 10976 10975 10975 10974 10974 10973 10973 10972 10972 10971 10971 10970 10970 10970 10969 10969
11001 11002 11002 11002 11003 11003 11004 11005 11005 11005 11006 11006 11006 11006 11006 11005 11005 11005 11006 11006 11006 11005 11005 11004 11004 11003 11002 11002 11001 11000 11000 10999 10999 10998 10998 10997 10997 10997 10996 10996 10995 10995 10995 10994 10994 10994 10994 10993 10993 10992 10992 10991 10990 10990 10989 10988 10987 10986 10986 10985 10985 10984 10983 10981 10980 10980 10979 10978 10977 10976 10976 10975 10975 10975 10975 10974 10974 10973 10972 10972 10972 10971 10971 10971 10971
10998 10999 10999 11000 11000 11001 11001 11002 11003 11003 11004 11004 11004 11004 11004 11004 11004 11004 11005 11006 11005 11005 11005 11005 11004 11003 11003 11002 11001 11000 11000 10999 10999 10998 10997 10997 10996 10996 10996 10995 10995 10994 10994 10993 10993 10993 10993 10992 10992 10992 10991 10990 10990 10989 10988 10987 10986 10986 10985 10984 10983 10983 10982 10982 10981 10980 10979 10979 10978 10977 10976 10976 10976 10975 10975 10975 10974 10974 10974 10973 10973 10973 10972 10972 10972
10994 10996 10996 10997 10998 10998 10999 10999 11000 11001 11001 11002 11002 11003 11003 11002 11002 11002 11003 11004 11004 11004 11004 11004 11003 11003 11003 11002 11001 11000 11000 10999 10999 10998 10997 10997 10996 10995 10995 10994 10994 10994 10993 10992 10992 10991 10991 10991 10991 10991 10990 10989 10989 10988 10987 10987 10986 10985 10984 10983 10982 10981 10981 10981 10981 10980 10979 10978 10977 10977 10976 10976 10976 10975 10975 10975 10974 10974 10974 10974 10974 10973 10973 10973 10972
10991 10992 10993 10994 10995 10995 10996 10997 10997 10998 10999 10999 11000 11000 11000 11000 11000 11000 11001 11002 11002 11002 11002 11002 11002 11002 11002 11002 11001 11000 11000 10999 10999 10998 10998 10997 10996 10995 10994 10994 10993 10993 10993 10992 10992 10991 10990 10990 10990 10989 10989 10988 10987 10987 10987 10986 10986 10985 10984 10983 10982 10981 10980 10979 10979 10980 10980 10978 10977 10976 10976 10976 10975 10975 10975 10974 10974 10974 10974 10974 10974 10973 10973 10973 10973
10988 10988 10990 10991 10991 10992 10993 10994 10995 10995 10996 10996 10997 10998 10998 10998 10998 10998 10998 10999 10999 10999 11000 11000 11000 11000 11000 11000 11000 11000 10999 10998 10998 10998 10997 10997 10996 10995 10994 10993 10993 10992 10992 10991 10991 10990 10989 10989 10988 10988 10987 10987 10986 10986 10986 10986 10986 10985 10984 10983 10982 10981 10980 10979 10978 10978 10978 10978 10977 10976 10975 10975 10975 10975 10974 10974 10974 10974 10974 10974 10973 10973 10973 10972 10972
10984 10985 10986 10987 10987 10988 10989 10990 10992 10993 10993 10993 10994 10994 10994 10995 10995 10996 10996 10996 10996 10996 10997 10997 10997 10997 10997 10997 10998 10998 10997 10997 10997 10996 10996 10996 10995 10995 10994 10993 10992 10992 10991 10991 10990 10989 10988 10987 10987 10986 10986 10985 10984 10984 10984 10985 10985 10984 10983 10982 10982 10981 10981 10979 10978 10977 10977 10977 10976 10975 10975 10974 10974 10974 10974 10974 10974 10974 10973 10973 10973 10972 10972 10971 10971
10980 10980 10980 10981 10981 10982 10983 10985 10988 10989 10990 10991 10991 10991 10991 10991 10992 10992 10992 10993 10993 10993 10993 10994 10994 10994 10994 10994 10994 10995 10995 10995 10994 10994 10994 10994 10994 10993 10993 10992 10991 10991 10990 10989 10989 10988 10987 10986 10985 10985 10984 10984 10983 10983 10983 10983 10983 10982 10981 10981 10981 10981 10980 10979 10978 10977 10977 10976 10975 10975 10975 10974 10974 10974 10973 10973 10973 10973 10973 10973 10972 10972 10971 10971 10970
10975 10975 10974 10973 10973 10975 10978 10980 10983 10985 10986 10987 10987 10988 10987 10987 10988 10988 10988 10989 10989 10989 10990 10990 10990 10990 10990 10991 10991 10991 10991 10991 10991 10991 10991 10991 10991 10991 10991 10991 10990 10989 10988 10988 10987 10987 10986 10985 10984 10983 10982 10982 10981 10981 10981 10981 10980 10980 10980 10979 10979 10979 10979 10979 10977 10976 10975 10975 10975 10974 10974 10974 10974 10973 10973 10973 10972 10972 10972 10972 10971 10970 10970 10970 10970
10970 10971 10970 10966 10966 10969 10973 10976 10978 10980 10981 10982 10983 10983 10983 10983 10983 10984 10984 10984 10985 10985 10986 10986 10986 10986 10986 10986 10987 10987 10987 10987 10987 10987 10987 10988 10988 10988 10988 10988 10988 10988 10987 10986 10985 10984 10983 10982 10982 10981 10980 10979 10979 10979 10979 10979 10978 10978 10977 10977 10977 10977 10977 10977 10976 10974 10974 10973 10973 10973 10973 10973 10973 10973 10972 10971 10971 10971 10970 10970 10969 10969 10969 10969 10969
10965 10966 10963 10960 10961 10965 10969 10971 10974 10975 10977 10978 10979 10979 10979 10978 10979 10979 10979 10980 10980 10980 10981 10982 10983 10983 10983 10982 10982 10982 10982 10982 10983 10983 10983 10984 10984 10984 10984 10985 10985 10985 10984 10984 10983 10982 10981 10980 10979 10978 10977 10976 10976 10976 10976 10976 10976 10976 10976 10975 10975 10974 10974 10974 10973 10972 10971 10971 10971 10971 10971 10972 10972 10972 10971 10971 10970 10969 10969 10968 10967 10966 10966 10967 10967
10961 10959 10956 10955 10958 10961 10963 10966 10969 10971 10973 10974 10974 10973 10973 10973 10974 10974 10975 10975 10975 10976 10976 10977 10978 10979 10979 10979 10978 10978 10978 10978 10978 10978 10978 10978 10978 10979 10980 10981 10982 10982 10981 10980 10979 10978 10977 10976 10975 10974 10973 10972 10973 10973 10973 10973 10973 10973 10973 10973 10972 10972 10971 10970 10970 10969 10968 10968 10968 10969 10969 10969 10969 10970 10970 10970 10969 10968 10968 10967 10965 10964 10964 10964 10964